TVS3WP LKPR-LROP

Flight info

Callsign TVS3WP
Flight time 1h 32m
Altitude 37000
Route VOZ DCT LIKSA DCT PEPIK DCT DEGET DCT EKNAB DCT LAMIT DCT TOSVI
Aircraft B738/M-SDFGHIJ1LORVWXYZ/LB1

Departure

Time 2026-05-06 15:27
Airport Václav Havel Airport Prague (LKPR)

Arrival

Time 2026-05-06 16:59
Airport Bucharest Henri Coandă International Airport (LROP)
Time Latitude Longitude Altitude Speed Heading
2026-05-06 14:39 50.10457 14.26528 1171 ft 0 kts 34°
2026-05-06 15:07 50.10454 14.26525 1173 ft 3 kts 33°
2026-05-06 15:07 50.10433 14.26501 1168 ft 4 kts 58°
2026-05-06 15:08 50.10432 14.26479 1168 ft 4 kts 124°
2026-05-06 15:08 50.10447 14.26444 1168 ft 4 kts 124°
2026-05-06 15:08 50.10462 14.26410 1169 ft 4 kts 124°
2026-05-06 15:08 50.10478 14.26375 1169 ft 4 kts 124°
2026-05-06 15:09 50.10493 14.26340 1170 ft 4 kts 124°
2026-05-06 15:09 50.10508 14.26306 1168 ft 4 kts 124°
2026-05-06 15:09 50.10511 14.26299 1168 ft 1 kts 124°
2026-05-06 15:20 50.10510 14.26301 1168 ft 1 kts 124°
2026-05-06 15:20 50.10481 14.26368 1169 ft 12 kts 124°
2026-05-06 15:20 50.10429 14.26483 1169 ft 13 kts 124°
2026-05-06 15:21 50.10387 14.26578 1169 ft 8 kts 124°
2026-05-06 15:21 50.10338 14.26606 1173 ft 9 kts 202°
2026-05-06 15:21 50.10277 14.26546 1173 ft 12 kts 213°
2026-05-06 15:21 50.10208 14.26579 1175 ft 13 kts 126°
2026-05-06 15:22 50.10145 14.26714 1179 ft 17 kts 129°
2026-05-06 15:22 50.10074 14.26857 1187 ft 16 kts 127°
2026-05-06 15:22 50.10007 14.26995 1194 ft 16 kts 127°
2026-05-06 15:22 50.09941 14.27131 1199 ft 16 kts 127°
2026-05-06 15:23 50.09870 14.27277 1201 ft 18 kts 129°
2026-05-06 15:23 50.09779 14.27425 1204 ft 20 kts 135°
2026-05-06 15:23 50.09682 14.27574 1205 ft 19 kts 135°
2026-05-06 15:23 50.09588 14.27719 1210 ft 19 kts 135°
2026-05-06 15:24 50.09499 14.27856 1213 ft 10 kts 135°
2026-05-06 15:24 50.09492 14.27865 1213 ft 4 kts 135°
2026-05-06 15:24 50.09445 14.27939 1214 ft 15 kts 135°
2026-05-06 15:24 50.09361 14.28066 1213 ft 25 kts 135°
2026-05-06 15:25 50.09253 14.28232 1212 ft 15 kts 135°
2026-05-06 15:25 50.09213 14.28276 1211 ft 0 kts 159°
2026-05-06 15:25 50.09205 14.28279 1211 ft 3 kts 166°
2026-05-06 15:25 50.09165 14.28276 1210 ft 9 kts 197°
2026-05-06 15:26 50.09106 14.28210 1210 ft 12 kts 221°
2026-05-06 15:26 50.09071 14.28114 1207 ft 9 kts 290°
2026-05-06 15:26 50.09092 14.28069 1207 ft 5 kts 307°
2026-05-06 15:26 50.09146 14.27960 1210 ft 34 kts 307°
2026-05-06 15:27 50.09434 14.27361 1207 ft 103 kts 307°
2026-05-06 15:27 50.09969 14.26231 1251 ft 153 kts 304°
2026-05-06 15:27 50.10666 14.24863 1802 ft 164 kts 306°
2026-05-06 15:27 50.11386 14.23408 2353 ft 182 kts 306°
2026-05-06 15:28 50.12223 14.21676 2668 ft 212 kts 305°
2026-05-06 15:28 50.13135 14.19746 2922 ft 234 kts 305°
2026-05-06 15:28 50.14128 14.17664 3402 ft 244 kts 305°
2026-05-06 15:28 50.15185 14.15455 3811 ft 261 kts 304°
2026-05-06 15:29 50.16281 14.13169 4381 ft 272 kts 304°
2026-05-06 15:29 50.17432 14.10762 5281 ft 274 kts 302°
2026-05-06 15:29 50.18152 14.08109 6171 ft 269 kts 274°
2026-05-06 15:29 50.17958 14.05241 6935 ft 269 kts 246°
2026-05-06 15:30 50.16964 14.02812 7820 ft 266 kts 223°
2026-05-06 15:30 50.15529 14.00999 8735 ft 266 kts 216°
2026-05-06 15:30 50.14017 13.99313 9595 ft 269 kts 210°
2026-05-06 15:30 50.12243 13.98428 10202 ft 280 kts 186°
2026-05-06 15:31 50.10217 13.98783 10392 ft 309 kts 164°
2026-05-06 15:31 50.08158 14.00088 10769 ft 326 kts 159°
2026-05-06 15:31 50.06080 14.01574 11437 ft 332 kts 158°
2026-05-06 15:32 50.01848 14.04631 12934 ft 340 kts 159°
2026-05-06 15:32 49.99910 14.06006 13511 ft 346 kts 159°
2026-05-06 15:32 49.97732 14.07537 14213 ft 348 kts 160°
2026-05-06 15:32 49.95519 14.09084 14966 ft 349 kts 160°
2026-05-06 15:33 49.93298 14.10631 15646 ft 351 kts 160°
2026-05-06 15:33 49.91059 14.12186 16320 ft 354 kts 161°
2026-05-06 15:33 49.88799 14.13752 17003 ft 356 kts 161°
2026-05-06 15:33 49.86545 14.15385 17611 ft 363 kts 155°
2026-05-06 15:34 49.84577 14.17943 18138 ft 380 kts 135°
2026-05-06 15:34 49.82956 14.21190 18847 ft 380 kts 132°
2026-05-06 15:34 49.81385 14.24476 19391 ft 383 kts 132°
2026-05-06 15:34 49.79791 14.27819 19862 ft 387 kts 132°
2026-05-06 15:35 49.78184 14.31164 20369 ft 391 kts 133°
2026-05-06 15:35 49.76553 14.34529 20898 ft 393 kts 133°
2026-05-06 15:35 49.74889 14.37940 21396 ft 396 kts 133°
2026-05-06 15:35 49.73290 14.41202 21919 ft 397 kts 133°
2026-05-06 15:36 49.71613 14.44617 22426 ft 400 kts 134°
2026-05-06 15:36 49.69928 14.48040 22879 ft 404 kts 134°
2026-05-06 15:36 49.68211 14.51524 23322 ft 407 kts 134°
2026-05-06 15:36 49.66491 14.55022 23709 ft 411 kts 133°
2026-05-06 15:37 49.64880 14.58684 24072 ft 416 kts 129°
2026-05-06 15:37 49.63343 14.62505 24440 ft 420 kts 128°
2026-05-06 15:37 49.61839 14.66321 24779 ft 423 kts 128°
2026-05-06 15:37 49.60296 14.70201 25117 ft 426 kts 128°
2026-05-06 15:38 49.58712 14.74126 25485 ft 428 kts 129°
2026-05-06 15:38 49.57137 14.77982 25827 ft 431 kts 129°
2026-05-06 15:38 49.55525 14.81902 26181 ft 434 kts 129°
2026-05-06 15:38 49.53906 14.85827 26558 ft 436 kts 129°
2026-05-06 15:39 49.52383 14.89665 26901 ft 441 kts 126°
2026-05-06 15:39 49.50915 14.93929 27223 ft 447 kts 123°
2026-05-06 15:39 49.49534 14.98248 27553 ft 451 kts 122°
2026-05-06 15:39 49.48181 15.02562 27882 ft 453 kts 122°
2026-05-06 15:40 49.46797 15.06955 28209 ft 456 kts 122°
2026-05-06 15:40 49.45394 15.11347 28520 ft 459 kts 123°
2026-05-06 15:40 49.43973 15.15736 28819 ft 461 kts 123°
2026-05-06 15:40 49.42527 15.20155 29140 ft 463 kts 123°
2026-05-06 15:41 49.41076 15.24560 29457 ft 465 kts 123°
2026-05-06 15:41 49.39606 15.29008 29696 ft 468 kts 123°
2026-05-06 15:41 49.38122 15.33484 29920 ft 471 kts 123°
2026-05-06 15:41 49.36639 15.37957 30247 ft 471 kts 123°
2026-05-06 15:42 49.35157 15.42421 30633 ft 469 kts 124°
2026-05-06 15:42 49.33675 15.46882 30973 ft 469 kts 124°
2026-05-06 15:42 49.32203 15.51299 31284 ft 469 kts 124°
2026-05-06 15:42 49.30717 15.55753 31589 ft 469 kts 124°
2026-05-06 15:43 49.29223 15.60219 31907 ft 469 kts 124°
2026-05-06 15:43 49.27739 15.64651 32212 ft 469 kts 124°
2026-05-06 15:43 49.26247 15.69097 32528 ft 469 kts 125°
2026-05-06 15:43 49.24759 15.73525 32807 ft 469 kts 124°
2026-05-06 15:44 49.23255 15.77989 33033 ft 471 kts 125°
2026-05-06 15:44 49.21751 15.82447 33281 ft 472 kts 125°
2026-05-06 15:44 49.20244 15.86910 33591 ft 471 kts 125°
2026-05-06 15:44 49.18743 15.91349 33906 ft 470 kts 125°
2026-05-06 15:45 49.17248 15.95768 34236 ft 468 kts 125°
2026-05-06 15:45 49.15752 16.00174 34552 ft 466 kts 125°
2026-05-06 15:45 49.14259 16.04560 34791 ft 466 kts 125°
2026-05-06 15:45 49.12755 16.08955 34755 ft 470 kts 125°
2026-05-06 15:46 49.09708 16.17825 34789 ft 473 kts 125°
2026-05-06 15:46 49.08166 16.22254 34920 ft 475 kts 125°
2026-05-06 15:46 49.06630 16.26701 35226 ft 472 kts 124°
2026-05-06 15:47 49.05110 16.31123 35585 ft 469 kts 124°
2026-05-06 15:47 49.03600 16.35518 35880 ft 467 kts 124°
2026-05-06 15:47 49.02098 16.39878 36102 ft 466 kts 124°
2026-05-06 15:47 49.00584 16.44260 36296 ft 466 kts 124°
2026-05-06 15:48 48.99077 16.48612 36501 ft 465 kts 124°
2026-05-06 15:48 48.97562 16.52978 36672 ft 465 kts 124°
2026-05-06 15:48 48.94523 16.61703 36763 ft 469 kts 124°
2026-05-06 15:49 48.91474 16.70443 36758 ft 466 kts 124°
2026-05-06 15:49 48.88438 16.79117 36763 ft 463 kts 124°
2026-05-06 15:50 48.85438 16.87659 36740 ft 460 kts 124°
2026-05-06 15:50 48.82421 16.96223 36772 ft 462 kts 124°
2026-05-06 15:51 48.79342 17.04927 36791 ft 469 kts 124°
2026-05-06 15:51 48.75822 17.13182 36789 ft 464 kts 134°
2026-05-06 15:52 48.71828 17.20877 36793 ft 466 kts 134°
2026-05-06 15:52 48.67795 17.28596 36786 ft 467 kts 134°
2026-05-06 15:53 48.63811 17.36329 36792 ft 466 kts 134°
2026-05-06 15:53 48.59849 17.44070 36792 ft 464 kts 134°
2026-05-06 15:54 48.55906 17.51766 36792 ft 462 kts 134°
2026-05-06 15:54 48.51982 17.59402 36788 ft 459 kts 134°
2026-05-06 15:55 48.48102 17.66925 36800 ft 457 kts 134°
2026-05-06 15:55 48.44199 17.74468 36817 ft 455 kts 134°
2026-05-06 15:56 48.40305 17.81972 36828 ft 456 kts 134°
2026-05-06 15:56 48.36393 17.89491 36832 ft 457 kts 134°
2026-05-06 15:57 48.32465 17.97020 36818 ft 458 kts 134°
2026-05-06 15:57 48.28525 18.04552 36841 ft 459 kts 134°
2026-05-06 15:58 48.24567 18.12098 36849 ft 461 kts 134°
2026-05-06 15:58 48.20593 18.19652 36854 ft 462 kts 134°
2026-05-06 15:59 48.16593 18.27235 36843 ft 464 kts 134°
2026-05-06 15:59 48.12586 18.34811 36851 ft 465 kts 134°
2026-05-06 16:00 48.08568 18.42388 36860 ft 465 kts 134°
2026-05-06 16:00 48.04541 18.49958 36858 ft 465 kts 134°
2026-05-06 16:01 48.00509 18.57518 36830 ft 465 kts 134°
2026-05-06 16:01 47.97164 18.63774 36862 ft 463 kts 133°
2026-05-06 16:02 47.92462 18.72541 36869 ft 462 kts 134°
2026-05-06 16:02 47.88468 18.79966 36872 ft 462 kts 134°
2026-05-06 16:03 47.84460 18.87398 36878 ft 462 kts 134°
2026-05-06 16:03 47.80441 18.94829 36872 ft 461 kts 133°
2026-05-06 16:04 47.77065 19.01055 36880 ft 461 kts 134°
2026-05-06 16:04 47.73044 19.08452 36882 ft 460 kts 134°
2026-05-06 16:05 47.69043 19.15793 36888 ft 460 kts 134°
2026-05-06 16:05 47.65005 19.23180 36860 ft 461 kts 134°
2026-05-06 16:06 47.60957 19.30567 36881 ft 461 kts 134°
2026-05-06 16:06 47.56880 19.37985 36890 ft 462 kts 134°
2026-05-06 16:07 47.52837 19.45323 36885 ft 463 kts 134°
2026-05-06 16:07 47.48756 19.52710 36886 ft 464 kts 134°
2026-05-06 16:08 47.44664 19.60095 36885 ft 465 kts 133°
2026-05-06 16:08 47.40548 19.67505 36893 ft 466 kts 133°
2026-05-06 16:09 47.36426 19.74906 36890 ft 467 kts 134°
2026-05-06 16:09 47.32288 19.82314 36886 ft 468 kts 134°
2026-05-06 16:10 47.28144 19.89714 36882 ft 469 kts 134°
2026-05-06 16:10 47.23986 19.97118 36888 ft 469 kts 134°
2026-05-06 16:11 47.19825 20.04509 36901 ft 469 kts 134°
2026-05-06 16:11 47.15655 20.11894 36883 ft 469 kts 134°
2026-05-06 16:12 47.11490 20.19251 36869 ft 470 kts 134°
2026-05-06 16:12 47.07303 20.26626 36913 ft 469 kts 134°
2026-05-06 16:13 47.03117 20.33981 36913 ft 469 kts 134°
2026-05-06 16:13 46.98924 20.41327 36895 ft 470 kts 134°
2026-05-06 16:14 46.94735 20.48649 36894 ft 470 kts 134°
2026-05-06 16:14 46.90533 20.55972 36918 ft 470 kts 134°
2026-05-06 16:15 46.86327 20.63283 36922 ft 469 kts 134°
2026-05-06 16:15 46.82123 20.70572 36899 ft 470 kts 134°
2026-05-06 16:16 46.77907 20.77862 36906 ft 469 kts 134°
2026-05-06 16:16 46.73687 20.85139 36909 ft 469 kts 134°
2026-05-06 16:17 46.69495 20.92350 36905 ft 470 kts 134°
2026-05-06 16:17 46.65268 20.99605 36908 ft 470 kts 134°
2026-05-06 16:18 46.61041 21.06839 36917 ft 470 kts 134°
2026-05-06 16:18 46.56803 21.14078 36917 ft 470 kts 134°
2026-05-06 16:19 46.52558 21.21316 36926 ft 471 kts 134°
2026-05-06 16:19 46.48291 21.28546 36928 ft 472 kts 135°
2026-05-06 16:20 46.43951 21.35678 36924 ft 472 kts 135°
2026-05-06 16:20 46.39573 21.42802 36931 ft 473 kts 135°
2026-05-06 16:21 46.35207 21.49920 36938 ft 473 kts 135°
2026-05-06 16:21 46.30825 21.57068 36931 ft 474 kts 135°
2026-05-06 16:22 46.26454 21.64185 36935 ft 474 kts 135°
2026-05-06 16:22 46.22064 21.71313 36928 ft 475 kts 135°
2026-05-06 16:23 46.17672 21.78425 36945 ft 475 kts 135°
2026-05-06 16:23 46.13276 21.85527 36941 ft 475 kts 135°
2026-05-06 16:24 46.08898 21.92578 36945 ft 475 kts 135°
2026-05-06 16:24 46.04463 21.99705 36941 ft 475 kts 135°
2026-05-06 16:25 46.00035 22.06801 36942 ft 475 kts 135°
2026-05-06 16:25 45.95618 22.13863 36948 ft 475 kts 135°
2026-05-06 16:26 45.91221 22.20876 36948 ft 475 kts 135°
2026-05-06 16:26 45.86796 22.27917 36946 ft 475 kts 135°
2026-05-06 16:27 45.82363 22.34953 36954 ft 476 kts 135°
2026-05-06 16:27 45.77927 22.41983 36955 ft 476 kts 135°
2026-05-06 16:28 45.73479 22.49011 36954 ft 475 kts 135°
2026-05-06 16:28 45.68990 22.55930 36956 ft 475 kts 137°
2026-05-06 16:29 45.64249 22.62483 36963 ft 474 kts 139°
2026-05-06 16:29 45.59490 22.69019 36977 ft 474 kts 138°
2026-05-06 16:30 45.55570 22.74498 36971 ft 475 kts 137°
2026-05-06 16:30 45.50071 22.82241 36973 ft 475 kts 137°
2026-05-06 16:31 45.45372 22.88855 36977 ft 475 kts 137°
2026-05-06 16:31 45.40657 22.95468 36982 ft 475 kts 137°
2026-05-06 16:32 45.35960 23.02036 36963 ft 473 kts 137°
2026-05-06 16:32 45.33603 23.05325 36765 ft 476 kts 137°
2026-05-06 16:32 45.31236 23.08623 36351 ft 475 kts 137°
2026-05-06 16:33 45.28892 23.11888 35963 ft 470 kts 137°
2026-05-06 16:33 45.26561 23.15129 35510 ft 466 kts 137°
2026-05-06 16:33 45.24285 23.18291 35123 ft 462 kts 137°
2026-05-06 16:34 45.19731 23.24607 34327 ft 454 kts 137°
2026-05-06 16:34 45.17502 23.27760 33882 ft 452 kts 133°
2026-05-06 16:34 45.15639 23.31316 33348 ft 451 kts 120°
2026-05-06 16:34 45.14269 23.35295 32956 ft 447 kts 110°
2026-05-06 16:35 45.13330 23.39472 32554 ft 442 kts 105°
2026-05-06 16:35 45.12488 23.43657 32156 ft 439 kts 104°
2026-05-06 16:35 45.11666 23.47801 31768 ft 436 kts 105°
2026-05-06 16:35 45.10841 23.51927 31380 ft 434 kts 105°
2026-05-06 16:36 45.09992 23.55992 30976 ft 432 kts 107°
2026-05-06 16:36 45.09066 23.60043 30527 ft 431 kts 108°
2026-05-06 16:36 45.08113 23.64055 30142 ft 429 kts 108°
2026-05-06 16:36 45.07159 23.68038 29449 ft 432 kts 108°
2026-05-06 16:37 45.06187 23.72103 28628 ft 438 kts 108°
2026-05-06 16:37 45.05214 23.76198 28080 ft 437 kts 108°
2026-05-06 16:37 45.04254 23.80256 27707 ft 432 kts 108°
2026-05-06 16:37 45.03308 23.84263 27337 ft 427 kts 108°
2026-05-06 16:38 45.02374 23.88227 26927 ft 424 kts 108°
2026-05-06 16:38 45.01445 23.92169 26501 ft 421 kts 108°
2026-05-06 16:38 45.00521 23.96081 26096 ft 418 kts 108°
2026-05-06 16:38 44.99602 23.99970 25707 ft 415 kts 108°
2026-05-06 16:39 44.98693 24.03809 25371 ft 411 kts 108°
2026-05-06 16:39 44.97789 24.07615 25009 ft 407 kts 108°
2026-05-06 16:39 44.96891 24.11397 24619 ft 405 kts 108°
2026-05-06 16:39 44.95996 24.15156 24244 ft 402 kts 108°
2026-05-06 16:40 44.95109 24.18874 23889 ft 399 kts 108°
2026-05-06 16:40 44.94226 24.22568 23530 ft 396 kts 108°
2026-05-06 16:40 44.93346 24.26246 23112 ft 393 kts 108°
2026-05-06 16:40 44.92475 24.29880 22710 ft 391 kts 108°
2026-05-06 16:41 44.91605 24.33501 22315 ft 388 kts 108°
2026-05-06 16:41 44.90742 24.37091 21947 ft 384 kts 108°
2026-05-06 16:41 44.89888 24.40635 21549 ft 379 kts 108°
2026-05-06 16:41 44.89039 24.44153 20995 ft 376 kts 108°
2026-05-06 16:42 44.88200 24.47627 20380 ft 376 kts 109°
2026-05-06 16:42 44.87358 24.51106 19836 ft 373 kts 109°
2026-05-06 16:42 44.86522 24.54555 19377 ft 369 kts 109°
2026-05-06 16:42 44.85696 24.57957 18913 ft 364 kts 109°
2026-05-06 16:43 44.84877 24.61328 18359 ft 364 kts 109°
2026-05-06 16:43 44.84060 24.64682 17779 ft 362 kts 109°
2026-05-06 16:43 44.83258 24.67973 17337 ft 356 kts 109°
2026-05-06 16:43 44.82457 24.71253 16820 ft 352 kts 109°
2026-05-06 16:44 44.81651 24.74549 16264 ft 351 kts 109°
2026-05-06 16:44 44.80856 24.77794 15756 ft 348 kts 109°
2026-05-06 16:44 44.80086 24.80934 15330 ft 343 kts 109°
2026-05-06 16:44 44.79308 24.84101 14828 ft 341 kts 109°
2026-05-06 16:45 44.78533 24.87253 14293 ft 341 kts 110°
2026-05-06 16:45 44.77757 24.90401 13843 ft 338 kts 110°
2026-05-06 16:45 44.76989 24.93516 13365 ft 334 kts 110°
2026-05-06 16:45 44.76232 24.96582 12860 ft 332 kts 109°
2026-05-06 16:46 44.75475 24.99644 12329 ft 330 kts 110°
2026-05-06 16:46 44.74722 25.02683 11909 ft 326 kts 109°
2026-05-06 16:46 44.73995 25.05615 11799 ft 310 kts 109°
2026-05-06 16:46 44.73295 25.08435 11482 ft 304 kts 109°
2026-05-06 16:47 44.72601 25.11227 11076 ft 303 kts 109°
2026-05-06 16:47 44.71918 25.13970 10993 ft 288 kts 109°
2026-05-06 16:47 44.71268 25.16582 10716 ft 281 kts 109°
2026-05-06 16:47 44.70620 25.19179 10226 ft 282 kts 109°
2026-05-06 16:48 44.69966 25.21799 9845 ft 285 kts 110°
2026-05-06 16:48 44.69311 25.24419 9566 ft 283 kts 109°
2026-05-06 16:48 44.68664 25.27004 9292 ft 280 kts 109°
2026-05-06 16:48 44.68016 25.29587 8991 ft 279 kts 109°
2026-05-06 16:49 44.67371 25.32158 8659 ft 280 kts 109°
2026-05-06 16:49 44.66726 25.34730 8357 ft 279 kts 110°
2026-05-06 16:49 44.66083 25.37288 8099 ft 276 kts 109°
2026-05-06 16:49 44.65443 25.39830 7809 ft 276 kts 109°
2026-05-06 16:50 44.64806 25.42359 7528 ft 274 kts 109°
2026-05-06 16:50 44.64169 25.44883 7227 ft 274 kts 109°
2026-05-06 16:50 44.63533 25.47400 6937 ft 274 kts 109°
2026-05-06 16:50 44.63113 25.49064 6800 ft 271 kts 109°
2026-05-06 16:51 44.62485 25.51545 6442 ft 269 kts 109°
2026-05-06 16:51 44.61860 25.54014 6033 ft 269 kts 109°
2026-05-06 16:51 44.61235 25.56482 5696 ft 266 kts 109°
2026-05-06 16:51 44.60616 25.58920 5322 ft 264 kts 109°
2026-05-06 16:52 44.60005 25.61325 5037 ft 259 kts 109°
2026-05-06 16:52 44.59401 25.63702 4770 ft 258 kts 109°
2026-05-06 16:52 44.58804 25.66047 4616 ft 252 kts 110°
2026-05-06 16:52 44.58223 25.68331 4489 ft 245 kts 110°
2026-05-06 16:53 44.57660 25.70538 4377 ft 236 kts 109°
2026-05-06 16:53 44.57118 25.72664 4266 ft 225 kts 110°
2026-05-06 16:53 44.56606 25.74671 4204 ft 211 kts 110°
2026-05-06 16:53 44.56123 25.76561 4031 ft 203 kts 110°
2026-05-06 16:54 44.55656 25.78384 3842 ft 194 kts 111°
2026-05-06 16:54 44.55209 25.80130 3634 ft 188 kts 111°
2026-05-06 16:54 44.54774 25.81828 3427 ft 182 kts 111°
2026-05-06 16:54 44.54575 25.83558 3231 ft 180 kts 81°
2026-05-06 16:55 44.54819 25.85237 3071 ft 174 kts 86°
2026-05-06 16:55 44.54935 25.86852 2899 ft 161 kts 87°
2026-05-06 16:55 44.55040 25.88395 2714 ft 158 kts 86°
2026-05-06 16:55 44.55150 25.89930 2523 ft 158 kts 86°
2026-05-06 16:56 44.55258 25.91419 2338 ft 155 kts 87°
2026-05-06 16:56 44.55369 25.92923 2157 ft 155 kts 86°
2026-05-06 16:56 44.55478 25.94403 1974 ft 152 kts 88°
2026-05-06 16:56 44.55587 25.95872 1791 ft 150 kts 88°
2026-05-06 16:57 44.55692 25.97290 1623 ft 143 kts 87°
2026-05-06 16:57 44.55792 25.98637 1449 ft 136 kts 87°
2026-05-06 16:57 44.55890 25.99964 1318 ft 137 kts 86°
2026-05-06 16:57 44.55990 26.01310 1139 ft 140 kts 86°
2026-05-06 16:58 44.56089 26.02638 974 ft 135 kts 85°
2026-05-06 16:58 44.56185 26.03914 823 ft 130 kts 86°
2026-05-06 16:58 44.56274 26.05174 642 ft 130 kts 85°
2026-05-06 16:58 44.56373 26.06418 491 ft 128 kts 85°
2026-05-06 16:59 44.56469 26.07663 366 ft 130 kts 86°
2026-05-06 16:59 44.56555 26.08866 321 ft 113 kts 85°
2026-05-06 16:59 44.56624 26.09795 321 ft 79 kts 84°
2026-05-06 16:59 44.56667 26.10387 322 ft 47 kts 84°
2026-05-06 17:00 44.56691 26.10685 321 ft 17 kts 82°
2026-05-06 17:00 44.56756 26.10761 321 ft 12 kts 356°
2026-05-06 17:00 44.56839 26.10755 320 ft 12 kts 354°
2026-05-06 17:00 44.56921 26.10742 321 ft 12 kts 352°
2026-05-06 17:01 44.56995 26.10707 321 ft 11 kts 324°
2026-05-06 17:01 44.57042 26.10618 320 ft 12 kts 300°
2026-05-06 17:01 44.57067 26.10508 321 ft 13 kts 269°
2026-05-06 17:01 44.57057 26.10372 321 ft 15 kts 264°
2026-05-06 17:02 44.57044 26.10216 321 ft 17 kts 264°
2026-05-06 17:02 44.57031 26.10039 321 ft 19 kts 264°
2026-05-06 17:02 44.57016 26.09842 321 ft 21 kts 263°
2026-05-06 17:02 44.56999 26.09633 321 ft 21 kts 263°
2026-05-06 17:03 44.56984 26.09429 321 ft 21 kts 264°
2026-05-06 17:03 44.56969 26.09231 321 ft 20 kts 264°
2026-05-06 17:03 44.56954 26.09040 321 ft 19 kts 264°
2026-05-06 17:03 44.56940 26.08854 321 ft 19 kts 264°
2026-05-06 17:04 44.56926 26.08674 321 ft 18 kts 264°
2026-05-06 17:04 44.56904 26.08535 320 ft 14 kts 248°
2026-05-06 17:04 44.56910 26.08415 320 ft 12 kts 314°
2026-05-06 17:04 44.56951 26.08322 322 ft 12 kts 270°
2026-05-06 17:05 44.56942 26.08209 322 ft 11 kts 264°
2026-05-06 17:05 44.56934 26.08101 320 ft 11 kts 264°
2026-05-06 17:05 44.56949 26.08036 322 ft 7 kts 350°
2026-05-06 17:05 44.56998 26.08029 322 ft 6 kts 354°
2026-05-06 17:06 44.57016 26.08026 320 ft 1 kts 354°
2026-05-06 17:06 44.57020 26.08026 321 ft 0 kts 354°